SCP
3 3 3 3 3 3 3 2 2 1 1 1 1 0 0 0 0 0 0 0 0 0 0 0 0 0 0 0 0 0 0 0 0 0 0 0 0 0 0 0 0 0 0
3 3 3 3 3 3 3 3 2 2 1 1 1 1 0 0 0 0 0 0 0 0 0 0 0 0 0 0 0 0 0 0 0 0 0 0 0 0 0 0 0 0 0
4 4 4 3 3 3 3 3 3 2 1 1 1 1 1 0 0 0 0 0 0 0 0 0 0 0 0 0 0 0 0 0 0 0 0 0 0 0 0 0 0 0 0
5 4 4 4 3 3 3 3 3 2 2 1 1 1 1 1 1 0 0 0 0 0 0 0 0 0 0 0 0 0 0 0 0 0 0 0 0 0 0 0 0 0 0
5 4 4 4 4 3 3 3 2 2 2 1 1 1 1 1 1 1 0 1 0 0 0 0 0 0 0 0 0 0 0 0 0 0 0 0 0 0 0 0 0 0 0
4 4 4 4 4 3 3 2 2 2 2 1 1 1 1 1 1 1 1 1 1 0 0 0 0 0 0 0 0 0 0 0 0 0 0 0 0 0 0 0 0 0 0
4 4 4 4 4 3 3 2 2 1 1 1 1 1 1 1 1 1 1 1 1 0 0 0 0 0 0 0 0 0 0 0 0 0 0 0 0 0 0 0 0 0 0
4 4 4 4 4 3 3 2 2 1 1 1 1 1 1 1 1 1 1 1 1 0 0 0 0 0 0 0 0 0 0 0 0 0 0 0 0 0 0 0 0 0 0
5 4 4 4 4 3 3 2 2 2 1 1 1 1 1 1 1 1 1 1 1 0 0 0 0 0 0 0 0 0 0 0 0 0 0 0 0 0 0 0 0 0 0
5 4 4 4 3 3 2 2 2 2 2 1 1 1 1 1 1 1 1 1 1 1 0 0 0 0 0 0 0 0 0 0 0 0 0 0 0 0 0 0 0 0 0
4 4 4 3 3 3 2 2 2 2 2 1 1 1 1 1 1 1 1 1 1 1 0 0 0 0 0 0 0 0 0 0 0 0 0 0 0 0 0 0 0 0 0
3 4 4 3 3 3 2 2 2 2 2 1 1 1 0 0 0 0 0 0 0 0 0 0 0 0 0 0 0 0 0 0 0 0 0 0 0 0 0 0 0 0 0
3 3 3 3 3 2 2 2 2 2 2 1 1 1 0 0 0 0 0 0 0 0 0 0 0 0 0 0 0 0 0 0 0 0 0 0 0 0 0 0 0 0 0
2 2 3 3 2 2 2 2 2 2 2 2 1 1 1 0 0 0 0 0 0 0 0 0 0 0 0 0 0 0 0 0 0 0 0 0 0 0 0 0 0 0 0
2 2 2 2 2 2 2 2 2 2 2 2 1 1 0 0 0 0 0 0 0 0 0 0 0 0 0 0 0 0 0 0 0 0 0 0 0 0 0 0 0 0 0
2 2 2 2 2 2 2 2 2 2 2 2 1 1 0 0 0 0 0 0 0 0 0 0 0 0 0 0 0 0 0 0 0 0 0 0 0 0 0 0 0 0 0
2 2 1 2 2 2 2 2 2 2 2 2 1 1 1 0 0 0 0 0 0 0 0 0 0 0 0 0 0 0 0 0 0 0 0 0 0 0 0 0 0 0 0
2 1 1 2 2 2 2 1 1 1 1 1 1 1 1 1 1 0 0 0 0 0 0 0 0 0 0 0 0 0 0 0 0 0 0 0 0 0 0 0 0 0 0
1 1 1 2 2 2 2 2 1 1 1 1 2 2 2 1 1 1 1 0 0 0 0 0 0 0 0 0 0 0 0 0 0 0 0 0 0 0 0 0 0 0 0
1 1 1 2 2 2 2 2 1 1 1 2 2 2 2 2 2 2 1 1 1 1 1 0 0 0 0 0 0 0 0 0 0 0 0 0 0 0 0 0 0 0 0
1 1 1 2 2 2 2 2 2 2 2 2 2 2 2 2 2 2 2 2 1 1 1 1 1 1 1 1 1 1 1 1 1 0 0 0 0 0 0 0 0 0 0
1 1 1 1 2 2 1 1 1 1 2 2 2 2 2 2 2 3 3 3 2 2 2 2 2 2 2 2 1 1 1 1 0 0 0 0 0 0 0 0 0 0 0
1 1 1 1 1 1 1 1 1 1 1 1 2 2 2 2 2 2 3 3 3 3 3 3 3 3 3 2 2 2 1 1 0 0 0 0 0 0 0 0 0 0 0
1 1 1 1 1 1 1 1 1 1 1 1 1 1 2 2 2 2 2 2 3 3 3 3 3 3 3 2 2 2 2 1 0 0 0 0 0 0 0 0 0 0 0
1 1 1 1 1 1 1 1 1 1 1 1 1 1 1 1 1 1 2 2 2 2 2 2 3 3 2 2 2 2 2 1 1 1 0 0 0 0 0 0 0 0 0
1 1 1 1 1 1 1 1 1 1 1 1 1 1 1 1 1 1 2 2 2 2 2 2 2 2 2 2 2 2 2 1 1 1 0 0 0 0 0 0 0 0 0
Wind_Speed
12 16 20 18 16 15 14 13 13 13 13 13 14 14 14 14 15 15 15 15 15 15 15 15 15 15 15 15 15 15 14 14 14 15 14 14 14 14 15 14 13 10 14
15 17 20 18 17 15 14 13 12 11 12 13 14 15 15 15 15 16 15 15 15 15 15 15 15 15 15 14 14 13 12 11 11 11 11 10 11 14 15 15 13 9 14
16 17 18 17 17 16 14 13 12 12 13 13 14 15 15 15 16 16 15 16 15 15 15 15 15 14 14 13 12 11 9 7 4 3 5 5 8 13 14 13 13 13 13
15 16 15 17 17 16 15 13 13 13 13 13 14 15 16 16 16 16 16 16 15 15 15 14 14 13 13 12 11 9 6 4 5 4 5 7 7 12 13 12 12 12 12
14 14 16 17 17 16 15 14 13 13 13 13 13 14 15 16 16 16 16 15 15 15 14 14 13 12 12 11 9 7 4 5 6 5 7 7 6 10 12 12 11 11 11
12 13 16 17 17 15 15 14 14 14 14 14 14 14 15 16 16 16 15 15 14 14 14 13 12 11 11 10 8 5 4 6 5 4 6 6 5 9 11 10 10 10 10
11 12 15 17 17 16 15 14 14 14 14 14 14 15 16 16 16 16 15 15 14 14 13 12 12 11 10 8 6 3 4 7 2 4 5 5 6 9 9 9 9 9 9
11 12 14 16 16 16 15 14 13 14 13 14 15 15 16 16 16 16 16 15 14 13 12 11 11 10 9 7 5 2 4 6 3 5 5 5 7 8 7 7 7 7 7
10 11 11 11 12 13 14 13 12 13 12 13 13 14 14 14 15 15 15 14 13 12 11 10 10 9 7 6 3 1 3 5 2 2 5 4 6 6 5 5 5 5 6
8 10 11 11 10 9 9 12 12 12 12 12 13 13 13 13 13 14 13 12 12 11 10 9 9 8 6 5 3 2 4 5 2 2 3 4 6 4 3 3 3 3 4
7 7 9 10 10 9 9 10 11 11 12 13 11 14 12 9 9 9 11 11 11 10 10 9 8 7 5 4 4 5 4 3 1 3 4 6 5 2 2 1 2 2 2
7 8 7 8 9 9 9 8 7 8 8 8 8 9 7 7 7 9 12 11 10 9 9 8 8 7 5 3 5 5 3 4 1 3 4 7 4 1 1 2 2 2 2
7 7 7 7 7 8 6 7 5 5 6 7 10 9 7 6 6 7 5 6 6 7 5 5 5 4 5 4 4 4 3 1 0 2 5 7 4 1 2 3 4 4 4
6 6 7 7 7 7 6 6 6 5 5 5 8 9 6 5 5 6 5 5 5 4 4 4 4 5 5 4 4 3 3 1 1 2 4 7 5 2 2 4 4 5 5
7 7 6 7 7 7 6 5 6 5 5 6 6 6 6 5 6 6 5 5 5 4 4 4 4 4 4 3 3 2 2 2 1 2 3 6 6 3 2 3 4 4 4
7 6 6 7 7 6 6 5 5 5 5 5 5 6 7 6 5 5 5 5 4 4 4 4 4 3 2 2 1 1 1 0 1 2 3 4 5 4 2 2 2 3 2
7 6 5 5 7 7 6 6 5 5 5 5 5 6 7 6 6 5 4 4 3 4 4 3 2 2 2 1 1 1 0 1 1 1 2 2 2 3 2 1 1 2 1
5 6 5 5 5 6 6 5 4 4 5 5 5 5 7 7 7 5 4 4 4 3 3 2 2 1 1 1 1 1 1 1 1 1 2 2 2 2 1 1 1 2 1
5 6 6 5 5 6 6 5 5 4 4 4 5 5 6 7 7 5 4 4 4 3 3 2 2 2 2 1 1 1 1 1 1 2 2 3 3 3 2 2 3 3 3
6 6 6 5 6 6 5 4 3 4 4 4 4 4 5 6 7 5 4 5 5 3 3 2 3 2 2 2 1 1 1 1 2 2 2 2 3 3 3 2 2 3 4
5 6 6 5 6 6 4 4 5 5 5 4 4 5 6 6 6 5 5 5 4 4 4 4 3 3 2 1 1 0 1 1 2 2 2 2 3 3 3 3 3 2 2
5 5 5 5 6 6 5 4 3 4 4 4 4 5 6 6 6 5 6 5 4 4 4 4 4 3 2 2 2 1 1 1 1 2 2 2 3 3 3 4 3 3 3
5 5 5 5 5 6 5 4 3 3 3 3 3 3 4 5 5 5 5 5 5 4 4 4 4 5 3 3 2 3 2 2 1 1 2 3 3 3 3 3 4 3 3
4 4 4 4 4 4 5 5 7 6 5 4 4 3 4 5 5 5 5 5 5 4 4 4 4 4 4 3 2 2 2 2 2 1 1 1 3 3 3 3 3 3 3
3 3 3 4 4 4 5 5 5 5 5 4 4 4 4 4 4 4 4 4 5 4 4 4 4 4 3 4 3 2 2 1 2 2 2 2 1 2 3 3 3 3 3
3 2 3 4 3 4 4 4 4 6 6 6 6 5 4 3 3 4 4 4 4 4 5 4 4 4 4 4 3 3 3 2 3 3 3 2 2 1 2 3 3 3 2
Wind_Direction
135 146 153 154 153 152 150 150 152 151 152 152 148 145 142 138 133 128 126 124 121 116 111 107 102 97 92 88 86 85 85 85 85 82 74 66 62 61 59 59 67 62 65
138 146 153 155 155 153 151 150 150 150 152 151 150 149 147 142 137 133 131 129 124 118 113 109 103 98 94 92 90 90 91 92 93 94 87 69 63 64 62 60 63 66 65
136 144 153 154 154 153 151 150 151 151 151 151 153 151 149 145 140 137 134 131 125 120 114 108 104 100 98 96 94 93 91 85 79 96 97 88 70 68 68 65 63 62 62
136 143 153 153 154 153 152 152 152 152 152 151 153 152 148 144 141 138 134 129 125 120 115 109 106 103 101 100 98 95 85 44 9 34 76 77 70 70 68 66 63 61 60
138 146 149 154 155 153 152 153 153 152 150 150 151 150 147 144 142 138 132 127 123 119 116 113 110 107 105 103 103 99 66 10 360 52 82 79 70 71 68 64 61 61 59
139 141 147 155 154 153 152 153 153 153 151 150 149 148 146 145 141 135 129 125 123 121 120 118 115 111 108 106 106 93 29 349 353 63 74 80 76 72 69 64 60 59 58
140 138 152 155 154 153 153 153 152 152 151 150 150 149 146 143 139 133 130 127 126 125 124 122 120 116 113 110 107 79 4 340 45 81 78 75 76 74 68 63 59 56 55
138 140 152 156 154 154 153 153 153 152 151 150 149 148 144 142 138 136 134 132 132 131 130 128 125 121 118 115 109 54 349 336 38 89 92 87 86 78 68 62 58 55 52
137 141 148 153 154 154 153 153 152 152 149 147 145 143 140 138 138 139 138 137 137 136 134 133 131 128 125 123 123 341 322 328 340 112 107 101 96 83 69 60 54 51 47
140 145 154 155 153 153 151 152 150 148 146 142 138 134 133 134 137 139 139 139 138 137 137 138 139 136 135 141 167 249 290 310 266 131 109 113 103 86 66 47 37 36 34
150 149 159 159 158 157 156 153 147 144 140 136 133 135 137 141 142 143 141 139 140 141 144 147 148 149 152 173 203 236 269 263 210 108 106 120 112 88 46 17 4 1 0
169 168 162 162 162 161 160 150 152 150 146 148 146 149 157 156 150 143 139 142 144 146 150 159 166 170 180 191 213 229 251 246 180 126 126 132 128 119 312 305 300 298 304
176 174 165 160 162 160 153 156 158 155 160 162 157 169 167 146 136 132 141 142 147 155 160 169 180 202 209 193 188 207 226 262 87 119 136 140 145 179 279 286 284 278 280
176 174 170 162 162 156 159 162 158 159 166 162 164 173 157 142 144 148 153 162 167 174 173 176 199 212 213 191 196 208 191 206 201 125 150 152 155 186 261 280 286 281 271
182 182 177 169 167 162 162 165 164 162 164 162 162 169 151 145 152 155 162 167 175 175 168 184 211 201 202 193 200 209 208 214 187 136 143 162 162 177 238 279 291 292 281
188 182 178 174 170 167 167 165 168 164 163 162 161 167 153 152 156 158 159 167 173 166 167 191 206 185 182 169 195 220 233 241 82 101 136 165 170 177 210 265 294 308 310
184 173 170 180 176 174 177 171 166 165 166 161 163 167 159 158 157 158 156 165 167 161 169 189 197 163 165 159 202 221 154 54 44 50 111 132 157 179 186 243 280 302 303
190 176 171 182 173 177 178 173 163 172 166 163 164 165 165 160 160 160 156 167 161 156 166 174 166 150 153 157 192 206 139 107 53 48 70 85 99 110 128 92 57 26 38
189 178 173 181 168 179 178 174 170 172 168 165 166 165 167 163 163 161 160 165 158 157 164 169 158 150 165 179 192 167 124 121 146 91 77 82 82 83 91 102 86 62 58
188 180 171 182 175 173 171 166 172 172 172 166 166 165 166 165 165 161 162 165 158 155 160 165 167 164 161 167 170 156 183 176 137 110 100 94 93 83 71 86 87 69 63
182 179 169 181 178 169 171 173 174 176 175 173 176 172 173 172 171 165 165 164 159 161 166 167 163 167 171 132 102 283 264 198 146 136 120 101 101 92 78 70 71 71 66
184 180 166 178 171 163 173 174 171 165 172 171 173 175 175 173 172 169 164 161 159 159 167 170 163 155 164 151 148 153 215 292 235 147 129 117 114 99 84 73 69 65 68
183 179 177 172 174 171 174 163 153 151 152 164 175 173 170 166 168 169 168 160 163 168 172 173 167 163 174 181 168 159 165 208 179 184 165 146 137 122 110 94 81 67 67
177 180 178 161 166 169 168 177 172 176 177 177 175 171 167 165 165 165 168 164 166 170 173 175 167 165 165 175 187 184 167 139 145 189 222 164 141 130 126 111 102 84 66
155 169 167 154 156 158 166 181 177 178 177 163 155 161 168 163 160 160 168 168 166 169 180 178 171 173 172 173 177 175 187 186 185 171 208 198 169 148 129 115 110 100 79
116 123 133 134 142 155 162 169 171 172 170 161 161 170 170 163 162 172 179 179 173 173 178 183 175 177 183 176 178 175 169 175 195 190 200 195 186 176 128 109 103 100 89